FW4383 Weather Reports


Display with metric or nautical units.
time (UTC)temp
F
wind
direction
speed
MPH
gust
MPH
rain 1hr
in
rain 24hr
in
rain mn
in
humidity
%
barometer
mb
20260509194531 75 1 2.0 7.0 0.00 0.00 0.00 42 1021.7
20260509193033 73 4 2.0 6.0 0.00 0.00 0.00 43 1021.9
20260509190145 71 327 2.0 7.0 0.00 0.00 0.00 48 1022.2
20260509184537 70 356 2.0 7.0 0.00 0.00 0.00 50 1022.5
20260509183034 70 356 3.0 7.0 0.00 0.00 0.00 51 1022.7
20260509181535 68 352 2.0 5.0 0.00 0.00 0.00 52 1022.8
20260509174535 66 303 3.0 5.0 0.00 0.00 0.00 56 1022.9
20260509173036 66 332 1.0 5.0 0.00 0.00 0.00 57 1023.0
20260509171535 65 30 1.0 5.0 0.00 0.00 0.00 59 1023.2
20260509170036 64 36 0.0 6.0 0.00 0.00 0.00 62 1023.5
20260509164537 62 351 1.0 4.0 0.00 0.00 0.00 63 1023.6
20260509163037 62 69 0.0 4.0 0.00 0.00 0.00 64 1023.7
20260509161534 60 30 2.0 5.0 0.00 0.00 0.00 67 1023.8
20260509160109 59 8 1.0 6.0 0.00 0.00 0.00 69 1024.1
20260509154536 58 319 1.0 4.0 0.00 0.00 0.00 71 1024.2
20260509153036 56 31 2.0 4.0 0.00 0.00 0.00 72 1024.1
20260509150111 54 67 1.0 3.0 0.00 0.00 0.00 75 1024.1
20260509144536 52 121 0.0 3.0 0.00 0.00 0.00 81 1024.2
20260509141537 46 68 0.0 2.0 0.00 0.00 0.00 89 1024.1
20260509140035 44 67 0.0 0.0 0.00 0.00 0.00 91 1024.1
20260509134535 42 67 0.0 2.0 0.00 0.00 0.00 90 1024.1
20260509133151 42 67 0.0 0.0 0.00 0.00 0.00 89 1024.1
20260509133144 42 67 0.0 0.0 0.00 0.00 0.00 89 1023.9
20260509130108 42 67 1.0 3.0 0.00 0.00 0.00 87 1023.7
20260509124536 43 67 0.0 0.0 0.00 0.00 0.00 85 1023.6
20260509123035 45 67 0.0 0.0 0.00 0.00 0.00 84 1023.5
20260509121536 46 95 1.0 4.0 0.00 0.00 0.00 83 1023.4
20260509114643 48 132 1.0 4.0 0.00 0.00 0.00 80 1023.3
20260509113034 50 145 0.0 5.0 0.00 0.00 0.00 75 1023.3
20260509111532 54 143 1.0 5.0 0.00 0.00 0.00 70 1023.3
20260509110037 56 219 4.0 11.0 0.00 0.00 0.00 68 1023.3
20260509104536 56 248 5.0 14.0 0.00 0.00 0.00 68 1023.3
20260509101535 56 248 6.0 11.0 0.00 0.00 0.00 69 1023.4
20260509100034 57 248 5.0 12.0 0.00 0.00 0.00 68 1023.4
20260509094532 57 252 8.0 16.0 0.00 0.00 0.00 68 1023.4
20260509093034 56 247 6.0 13.0 0.00 0.00 0.00 69 1023.6
20260509091608 57 240 6.0 11.0 0.00 0.00 0.00 69 1023.6
20260509083034 58 270 7.0 16.0 0.00 0.00 0.00 66 1024.0
20260509081533 57 277 5.0 14.0 0.00 0.00 0.00 66 1024.1
20260509080042 57 227 3.0 11.0 0.00 0.00 0.00 65 1024.2
20260509080035 58 224 4.0 11.0 0.00 0.00 0.00 65 1024.1
20260509073034 58 238 6.0 11.0 0.00 0.00 0.00 65 1024.1
20260509071535 58 248 5.0 12.0 0.00 0.00 0.00 64 1024.1
20260509064536 59 246 5.0 13.0 0.00 0.00 0.00 62 1024.5
20260509061536 57 243 5.0 14.0 0.00 0.00 0.00 66 1024.5
20260509060037 56 222 1.0 5.0 0.00 0.00 0.00 67 1024.4
20260509054534 56 212 2.0 5.0 0.00 0.00 0.00 67 1024.3
20260509044535 59 241 4.0 8.0 0.00 0.00 0.00 60 1023.9
20260509043037 60 248 5.0 11.0 0.00 0.00 0.00 60 1023.8
20260509041536 60 257 4.0 7.0 0.00 0.00 0.00 59 1023.7
20260509040031 60 261 4.0 12.0 0.00 0.00 0.00 57 1023.5
20260509034531 60 265 4.0 10.0 0.00 0.00 0.00 56 1023.2
20260509030108 62 250 3.0 7.0 0.00 0.00 0.00 53 1022.7
20260509024610 63 262 4.0 14.0 0.00 0.00 0.00 52 1022.5
20260509023034 64 248 4.0 12.0 0.00 0.00 0.00 50 1022.4
20260509021648 64 265 6.0 13.0 0.00 0.00 0.00 49 1022.3
20260509020031 65 270 5.0 12.0 0.00 0.00 0.00 48 1022.3
20260509014532 66 261 6.0 17.0 0.00 0.00 0.00 47 1022.2
20260509013129 66 257 8.0 21.0 0.00 0.00 0.00 46 1022.2
20260509011537 67 256 6.0 16.0 0.00 0.00 0.00 45 1022.1
20260509010030 67 262 7.0 18.0 0.00 0.00 0.00 44 1022.0
20260509004532 67 261 7.0 17.0 0.00 0.00 0.00 43 1021.9
20260509001541 67 268 8.0 18.0 0.00 0.00 0.00 42 1021.8
20260509001535 67 267 10.0 24.0 0.00 0.00 0.00 40 1021.6
20260508234535 66 266 12.0 24.0 0.00 0.00 0.00 38 1021.5
20260508230034 66 273 12.0 24.0 0.00 0.00 0.00 41 1021.6
20260508224536 65 273 13.0 28.0 0.00 0.00 0.00 44 1021.6
20260508221533 64 270 14.0 28.0 0.00 0.00 0.00 46 1021.4
20260508214535 64 268 13.0 23.0 0.00 0.00 0.00 47 1021.5
20260508213110 64 268 13.0 26.0 0.00 0.00 0.00 48 1021.5
20260508212115 0 0 0.0 0.0 0.00 0.00 0.00 100